Location: Las Callecitas
(9.8750°N, 67.4611°W)
Time: 19:51:54
(UTC+00:00)

Cosmos 1655 Rocket - Pass Details

Date: 14 April 2024
Orbit: 971 x 1005 km, 83.0° (Epoch: 18 May)

Event Time Altitude Azimuth Distance (km) Brightness Sun altitude
Rises 08:28:24 0° 176° (S) 3,671 6.9 -27.6°
Reaches altitude 10° 08:30:56 10° 173° (S) 2,720 6.2 -27.0°
Maximum altitude 08:37:05 64° 93° (E) 1,070 4.3 -25.5°
Drops below altitude 10° 08:43:12 10° 12° (NNE) 2,707 6.6 -24.1°
Sets 08:45:43 0° 10° (N) 3,654 7.3 -23.5°
